Back to catalog

STARLINK-6255

AliveCommunicationsVLEO
NORAD 56550·PAYLOAD·🇺🇸 United States

Launched May 14, 2023 from Cape Canaveral Space Force Station

Loading…

Next Passes (next 24 hours)

TLE

FreshSource: CelesTrak SupGP

Epoch: Sep 14, 2026, 20:50 UTC

1 56550C 23065AZ  26257.86854167  .00031246  00000+0  11316-2 0  2570
2 56550  42.9996 235.4942 0001583 259.5199  12.4760 15.27565590    14

Track STARLINK-6255 in real time with AllMySat

Download on the App Store